TimeEDT,TemperatureF,Dew PointF,Humidity,Sea Level PressureIn,VisibilityMPH,Wind Direction,Wind SpeedMPH,Gust SpeedMPH,PrecipitationIn,Events,Conditions,WindDirDegrees,DateUTC
12:14 AM,48.4,46.9,95,29.72,10.0,WSW,4.6,-,N/A,Rain,Rain,250,2014-05-01 04:14:00
12:35 AM,43.2,42.3,97,29.72,4.0,SW,13.8,19.6,N/A,Rain,Light Rain,230,2014-05-01 04:35:00
12:55 AM,42.3,41.9,99,29.73,3.0,SW,11.5,16.1,N/A,Rain,Light Rain,230,2014-05-01 04:55:00
1:14 AM,41.9,41.9,100,29.73,4.0,SW,8.1,-,N/A,Rain,Light Rain,230,2014-05-01 05:14:00
1:35 AM,41.0,40.8,99,29.73,2.5,SW,9.2,-,N/A,Rain,Light Rain,230,2014-05-01 05:35:00
1:55 AM,40.8,40.3,98,29.72,7.0,SW,6.9,-,N/A,,Overcast,230,2014-05-01 05:55:00
2:14 AM,41.0,40.3,97,29.71,5.0,SSW,5.8,-,N/A,Rain,Light Rain,210,2014-05-01 06:14:00
2:35 AM,40.3,39.4,97,29.71,10.0,SW,8.1,-,N/A,Rain,Light Rain,220,2014-05-01 06:35:00
2:54 AM,40.1,39.0,96,29.70,10.0,SSW,9.2,-,N/A,,Drizzle,210,2014-05-01 06:54:00
3:15 AM,39.9,38.5,95,29.70,10.0,SW,10.4,-,N/A,,Overcast,220,2014-05-01 07:15:00
3:35 AM,39.4,37.8,94,29.69,10.0,SW,10.4,-,N/A,,Overcast,230,2014-05-01 07:35:00
3:54 AM,38.8,37.8,96,29.69,10.0,SW,9.2,-,N/A,,Overcast,220,2014-05-01 07:54:00
4:15 AM,37.8,36.9,97,29.69,10.0,SW,6.9,-,N/A,,Mostly Cloudy,220,2014-05-01 08:15:00
4:35 AM,37.0,36.3,97,29.69,10.0,SW,6.9,-,N/A,,Scattered Clouds,220,2014-05-01 08:35:00
5:15 AM,37.6,36.3,95,29.68,10.0,SSW,4.6,-,N/A,,Mostly Cloudy,210,2014-05-01 09:15:00
5:34 AM,36.1,35.4,97,29.67,10.0,Calm,Calm,-,N/A,,Scattered Clouds,0,2014-05-01 09:34:00
5:54 AM,35.2,34.5,97,29.67,10.0,SSW,3.5,-,N/A,,Clear,200,2014-05-01 09:54:00
6:15 AM,35.6,35.2,99,29.68,10.0,South,3.5,-,N/A,,Clear,180,2014-05-01 10:15:00
6:34 AM,35.6,35.2,99,29.67,10.0,South,3.5,-,N/A,,Clear,190,2014-05-01 10:34:00
6:55 AM,35.2,34.7,98,29.67,10.0,Calm,Calm,-,N/A,,Clear,0,2014-05-01 10:55:00
7:15 AM,35.8,34.9,97,29.67,10.0,Calm,Calm,-,N/A,,Scattered Clouds,0,2014-05-01 11:15:00
7:34 AM,37.0,35.8,95,29.67,10.0,South,4.6,-,N/A,,Clear,170,2014-05-01 11:34:00
7:55 AM,39.0,36.9,92,29.66,10.0,SSE,3.5,-,N/A,,Scattered Clouds,160,2014-05-01 11:55:00
8:15 AM,40.1,37.2,89,29.66,10.0,South,5.8,-,N/A,,Mostly Cloudy,170,2014-05-01 12:15:00
8:34 AM,40.1,37.8,91,29.66,10.0,South,4.6,-,N/A,,Overcast,180,2014-05-01 12:34:00
9:14 AM,39.6,38.3,95,29.67,10.0,South,8.1,-,N/A,,Overcast,190,2014-05-01 13:14:00
9:35 AM,40.6,39.2,95,29.66,10.0,South,6.9,-,N/A,,Overcast,190,2014-05-01 13:35:00
10:14 AM,41.9,39.9,93,29.66,10.0,SSW,12.7,16.1,N/A,,Overcast,200,2014-05-01 14:14:00
10:55 AM,43.0,39.0,86,29.65,10.0,South,8.1,-,N/A,,Overcast,190,2014-05-01 14:55:00
11:14 AM,44.1,38.8,82,29.65,10.0,SSW,11.5,16.1,N/A,,Overcast,210,2014-05-01 15:14:00
11:35 AM,44.8,38.1,77,29.65,10.0,SSW,10.4,-,N/A,,Overcast,200,2014-05-01 15:35:00
11:54 AM,43.5,37.6,80,29.65,10.0,SSW,8.1,-,N/A,,Light Drizzle,200,2014-05-01 15:54:00
12:14 PM,44.2,37.6,77,29.65,10.0,SSW,16.1,21.9,N/A,,Overcast,210,2014-05-01 16:14:00
12:35 PM,45.0,37.4,75,29.65,10.0,SSW,12.7,18.4,N/A,,Overcast,200,2014-05-01 16:35:00
1:14 PM,44.2,41.2,89,29.65,10.0,SW,11.5,17.3,N/A,Rain,Light Rain,230,2014-05-01 17:14:00
1:35 PM,46.2,39.4,77,29.64,10.0,SSW,12.7,17.3,N/A,,Overcast,210,2014-05-01 17:35:00
1:54 PM,46.6,37.9,72,29.64,10.0,South,11.5,17.3,N/A,,Overcast,190,2014-05-01 17:54:00
2:15 PM,45.0,39.4,81,29.64,10.0,SSW,11.5,-,N/A,Rain,Light Rain,200,2014-05-01 18:15:00
2:35 PM,46.0,38.5,75,29.64,10.0,SSW,12.7,18.4,N/A,,Overcast,200,2014-05-01 18:35:00
3:15 PM,47.7,38.7,71,29.64,10.0,South,13.8,21.9,N/A,,Overcast,190,2014-05-01 19:15:00
3:35 PM,45.7,36.9,71,29.64,10.0,SSW,10.4,-,N/A,,Overcast,210,2014-05-01 19:35:00
3:54 PM,45.7,39.6,79,29.64,10.0,WSW,5.8,-,N/A,Rain,Light Rain,240,2014-05-01 19:54:00
4:15 PM,46.2,37.4,71,29.63,10.0,SSW,15.0,-,N/A,Rain,Rain,200,2014-05-01 20:15:00
4:34 PM,47.5,37.8,69,29.63,10.0,SW,12.7,16.1,N/A,,Overcast,220,2014-05-01 20:34:00
4:54 PM,47.1,37.6,69,29.63,10.0,SW,12.7,-,N/A,,Overcast,220,2014-05-01 20:54:00
5:15 PM,43.0,40.6,91,29.64,5.0,SW,13.8,-,N/A,Rain,Light Rain,220,2014-05-01 21:15:00
5:34 PM,42.8,40.8,93,29.64,10.0,SSW,10.4,-,N/A,Rain,Light Rain,210,2014-05-01 21:34:00
5:54 PM,43.9,40.1,87,29.64,10.0,SW,9.2,-,N/A,,Overcast,230,2014-05-01 21:54:00
6:15 PM,41.9,39.9,93,29.65,10.0,WSW,9.2,-,N/A,Rain,Light Rain,240,2014-05-01 22:15:00
6:34 PM,42.4,40.1,91,29.65,10.0,SW,11.5,-,N/A,Rain,Light Rain,220,2014-05-01 22:34:00
6:55 PM,41.9,39.0,90,29.65,10.0,SW,10.4,-,N/A,,Overcast,230,2014-05-01 22:55:00
7:15 PM,42.1,38.8,88,29.65,10.0,SW,11.5,-,N/A,,Overcast,230,2014-05-01 23:15:00
7:34 PM,42.3,37.8,84,29.66,10.0,SW,8.1,-,N/A,,Mostly Cloudy,230,2014-05-01 23:34:00
7:55 PM,42.3,36.9,81,29.66,10.0,SW,11.5,18.4,N/A,,Mostly Cloudy,230,2014-05-01 23:55:00
8:15 PM,41.4,36.1,82,29.66,10.0,WSW,6.9,-,N/A,,Mostly Cloudy,240,2014-05-02 00:15:00
8:34 PM,40.3,35.8,84,29.67,10.0,WSW,8.1,-,N/A,,Scattered Clouds,250,2014-05-02 00:34:00
8:55 PM,40.3,36.1,85,29.67,10.0,WSW,8.1,-,N/A,,Scattered Clouds,240,2014-05-02 00:55:00
9:15 PM,40.1,36.5,87,29.67,10.0,WSW,6.9,-,N/A,,Mostly Cloudy,240,2014-05-02 01:15:00
9:34 PM,40.3,36.9,88,29.67,10.0,WSW,8.1,-,N/A,,Overcast,240,2014-05-02 01:34:00
9:55 PM,40.3,37.2,89,29.67,10.0,WSW,8.1,-,N/A,,Overcast,240,2014-05-02 01:55:00
10:15 PM,39.7,37.0,90,29.68,10.0,WSW,6.9,-,N/A,,Overcast,240,2014-05-02 02:15:00
10:34 PM,40.1,37.6,91,29.68,10.0,WSW,5.8,-,N/A,,Overcast,240,2014-05-02 02:34:00
10:55 PM,40.1,37.8,91,29.67,10.0,SW,5.8,-,N/A,,Overcast,230,2014-05-02 02:55:00
11:14 PM,40.1,38.3,93,29.67,10.0,SW,6.9,-,N/A,,Overcast,230,2014-05-02 03:14:00
11:34 PM,40.1,38.3,93,29.67,10.0,SW,8.1,-,N/A,,Overcast,220,2014-05-02 03:34:00
11:55 PM,40.1,39.2,97,29.67,10.0,SW,8.1,-,N/A,,Overcast,230,2014-05-02 03:55:00